This is the latest recevied weather packets stored in our database for station/object KC2TER. If no packets are shown the sender has not sent any weather packets the latest 10 day(s).
| Time | Temp. | Humidity | Pressure | Rain* | Wind** | Luminosity | Snow |
|---|---|---|---|---|---|---|---|
| 1778101182 | 20° C | 80% | 1006.8 hPa | 0 mm | - | 145 W/m² | - |
| 1778100878 | 20° C | 81% | 1007 hPa | 0 mm | - | 158 W/m² | - |
| 1778100574 | 19.44° C | 81% | 1007.1 hPa | 0 mm | - | 66 W/m² | - |
| 1778100272 | 19.44° C | 81% | 1006.9 hPa | 0 mm | - | 91 W/m² | - |
| 1778099969 | 19.44° C | 81% | 1007 hPa | 0 mm | - | 75 W/m² | - |
| 1778099666 | 19.44° C | 81% | 1007.1 hPa | 0 mm | - | 70 W/m² | - |
| 1778099363 | 19.44° C | 81% | 1007 hPa | 0 mm | - | 78 W/m² | - |
| 1778099061 | 19.44° C | 81% | 1007 hPa | 0 mm | - | 78 W/m² | - |
| 1778098757 | 19.44° C | 81% | 1007 hPa | 0 mm | - | 94 W/m² | - |
| 1778098454 | 19.44° C | 81% | 1007.2 hPa | 0 mm | - | 60 W/m² | - |
| 1778098151 | 19.44° C | 81% | 1007.1 hPa | 0 mm | - | 90 W/m² | - |
| 1778097847 | 19.44° C | 81% | 1007.3 hPa | 0 mm | - | 103 W/m² | - |
| 1778097544 | 18.89° C | 82% | 1007.2 hPa | 0 mm | - | 100 W/m² | - |
| 1778097241 | 18.89° C | 82% | 1007.3 hPa | 0 mm | - | 90 W/m² | - |
| 1778096937 | 18.89° C | 82% | 1007.5 hPa | 0 mm | - | 143 W/m² | - |
| 1778096634 | 18.89° C | 83% | 1007.4 hPa | 0 mm | - | 84 W/m² | - |
| 1778096332 | 18.89° C | 84% | 1007.7 hPa | 0 mm | - | 66 W/m² | - |
| 1778096028 | 18.33° C | 84% | 1007.4 hPa | 1.78 mm | - | 100 W/m² | - |
| 1778095725 | 18.33° C | 84% | 1007.5 hPa | 1.78 mm | - | 107 W/m² | - |
| 1778095422 | 18.33° C | 86% | 1007.6 hPa | 0 mm | - | 66 W/m² | - |
| 1778095118 | 17.78° C | 87% | 1007.6 hPa | 0 mm | - | 52 W/m² | - |
| 1778094815 | 18.33° C | 86% | 1007.6 hPa | 0 mm | - | 52 W/m² | - |
| 1778094512 | 17.78° C | 88% | 1007.6 hPa | 0 mm | - | 40 W/m² | - |
| 1778094208 | 17.78° C | 91% | 1007.7 hPa | 0 mm | - | 45 W/m² | - |
| 1778093905 | 17.78° C | 89% | 1007.9 hPa | 0 mm | - | 33 W/m² | - |
* Rain latest hour (hover to see other rain measurements)
** Current wind speed in m/s (hover to see current wind gust speed)